SCP
0 0 0 0 0 0 0 0 0 0 0 -0 0 0 0 0 0 0 0 0 0 0 0 0 0 0 0 0 0 0 0 0 0 0 0 0 0 0 0 0 0 0 0 0
0 0 0 0 0 -0 0 0 0 0 0 0 0 0 0 0 0 0 0 0 0 0 0 0 0 0 1 1 0 1 0 0 0 0 0 0 0 0 0 0 0 0 0 0
-0 0 0 -0 0 -0 -0 0 0 0 0 0 0 0 0 0 0 0 0 0 0 0 0 1 1 1 1 1 1 0 1 0 0 0 0 0 0 0 0 0 0 0 0 0
0 0 -0 -0 0 0 -0 0 0 0 0 0 0 0 0 0 0 -0 0 0 0 0 0 0 0 0 0 0 0 0 1 0 0 0 0 0 0 0 -0 0 -0 0 0 0
0 -0 -0 -0 -0 -0 0 0 0 0 0 0 0 0 0 0 0 0 0 0 0 0 0 0 0 0 0 0 0 0 0 0 0 0 0 0 0 0 -0 0 -0 -0 0 0
0 0 0 -0 0 0 -0 0 0 0 0 0 0 -0 0 0 0 0 0 0 0 0 0 0 0 0 0 0 0 0 0 0 0 0 0 0 0 0 0 -0 -0 -0 -0 0
0 0 0 0 0 0 0 0 0 0 0 0 0 0 0 0 0 0 0 0 0 0 -0 -0 0 0 0 0 -0 0 0 0 0 0 0 0 0 0 0 -0 -0 -0 0 0
0 0 0 0 -0 -0 0 0 0 -0 0 0 0 0 0 0 -0 -0 -0 -0 -0 -0 -0 -0 -0 0 -0 -0 0 0 0 0 0 0 0 0 0 0 -0 -0 0 0 0 0
0 0 0 0 0 0 0 -0 -0 -0 -0 -0 -0 -0 -0 -0 -0 -0 -0 -0 -0 -0 -0 -0 -0 -0 -0 -0 -0 -0 -0 0 0 0 0 0 0 0 0 0 0 0 0 1
0 0 0 0 0 0 0 0 0 0 0 0 -0 -0 -0 -0 -0 -0 -0 -0 -0 0 0 -0 -0 -0 -0 -0 -0 0 -0 -0 -0 -0 0 0 0 0 0 0 0 0 1 1
0 0 0 0 0 0 0 0 0 0 0 -0 -0 -0 -0 -0 -0 -0 -0 -0 -0 0 0 -0 -0 0 -0 -0 0 -0 -0 -0 0 0 0 0 0 0 0 0 0 0 1 2
0 0 0 0 0 -0 0 0 0 0 0 -0 -0 -0 -0 -0 -0 0 0 -0 0 -0 -0 -0 -0 -0 -0 -0 0 0 0 0 0 0 0 0 0 -0 -0 0 0 1 1 1
0 0 0 0 0 0 0 0 0 0 0 -0 -0 0 -0 -0 -0 -0 0 -0 -0 -0 -0 -0 -0 -0 0 0 0 0 0 0 0 0 0 0 0 0 0 0 0 0 0 0
0 0 0 0 0 0 0 0 0 0 0 0 -0 -0 -0 -0 -0 -0 0 -0 -0 -0 -0 -0 -0 -0 -0 0 0 0 0 0 1 1 1 0 1 1 1 0 0 0 0 0
0 0 0 0 0 0 0 0 0 -0 0 -0 0 -0 -0 -0 -0 0 -0 -0 -0 -0 -0 -0 -0 -0 0 0 0 0 0 0 0 0 1 1 1 1 0 0 0 0 0 0
0 0 0 0 0 0 0 0 0 -0 -0 -0 -0 -0 -0 0 0 0 0 -0 -0 0 0 0 0 0 0 0 0 0 0 0 0 1 0 0 0 0 0 0 0 0 0 0
0 -0 -0 0 0 0 0 0 0 -0 -0 -0 -0 -0 0 0 0 0 -0 -0 -0 0 0 0 0 0 0 0 0 0 0 0 0 0 0 0 0 0 0 0 0 0 0 0
0 0 0 0 0 0 0 0 0 0 0 -0 -0 -0 0 0 0 0 -0 -0 -0 0 0 -0 0 0 0 0 0 0 0 0 0 0 0 0 0 0 0 0 0 0 0 0
-0 0 0 0 0 0 0 0 0 0 -0 -0 -0 0 0 0 0 -0 -0 -0 0 -0 0 0 0 0 0 0 0 0 0 0 0 0 0 0 0 0 0 0 0 0 0 0
-0 0 0 0 0 0 0 0 0 -0 -0 -0 0 -0 -0 -0 -0 -0 0 0 -0 0 0 0 0 0 0 0 0 0 0 0 0 0 0 0 0 0 0 0 0 0 0 0
0 -0 -0 0 0 0 0 0 0 -0 -0 0 -0 -0 -0 -0 -0 -0 0 -0 0 0 0 0 0 0 0 0 0 0 0 0 0 0 0 0 0 0 0 0 0 0 0 0
-0 0 0 0 -0 0 0 0 0 -0 0 -0 -0 -0 -0 0 -0 0 0 0 0 0 0 0 0 0 0 0 0 0 0 0 0 0 0 0 0 0 0 0 0 0 0 0
-0 -0 0 0 0 -0 -0 0 0 0 0 0 -0 -0 -0 0 0 -0 0 0 0 0 0 0 0 0 0 0 0 0 0 0 0 0 0 0 0 0 0 0 0 0 0 0
-0 -0 0 0 0 0 -0 -0 0 -0 -0 -0 -0 -0 -0 0 0 0 0 0 0 0 0 0 0 0 0 0 0 0 0 0 0 0 0 0 0 0 0 0 0 0 0 -0
-0 -0 -0 -0 -0 0 0 -0 0 -0 -0 -0 -0 -0 -0 0 0 -0 0 0 0 0 0 0 0 0 0 0 0 0 0 0 0 0 0 0 0 0 0 0 0 0 0 0
-0 -0 -0 -0 -0 -0 0 0 -0 0 -0 -0 -0 -0 -0 -0 -0 0 -0 0 0 0 0 0 0 0 0 0 0 0 0 0 0 0 0 0 0 0 0 0 0 0 0 0
-0 -0 -0 -0 -0 0 -0 -0 -0 0 0 -0 -0 -0 -0 0 -0 -0 -0 -0 0 0 0 0 0 0 0 0 0 0 0 0 0 0 0 0 0 0 0 0 0 0 0 0
Wind_Speed_500mb
38 44 47 48 50 42 35 36 36 49 49 45 37 38 34 62 58 86 55 49 42 30 33 31 40 45 53 53 52 54 54 37 54 50 49 53 57 73 67 65 75 83 79 68
40 39 50 56 53 53 53 46 54 49 50 42 50 58 52 55 60 40 31 37 46 41 44 40 47 55 53 56 44 43 56 59 54 55 55 57 60 65 78 78 68 80 78 76
39 38 40 28 36 55 41 40 43 30 38 41 42 40 43 47 45 40 32 41 46 46 51 47 50 42 46 49 56 63 66 67 63 64 64 59 64 72 76 87 85 76 84 87
27 29 36 39 12 16 22 22 31 32 28 16 29 37 41 39 43 43 42 35 43 48 50 52 57 60 71 79 72 71 70 68 68 69 68 76 82 73 79 86 88 80 82 88
11 20 37 42 16 16 13 25 26 17 24 31 49 54 45 45 37 55 61 63 61 60 62 70 74 83 82 80 86 88 86 86 88 87 80 70 74 82 82 86 99 101 84 84
15 9 13 14 8 23 19 22 32 39 31 35 47 29 28 66 74 73 75 69 70 73 78 84 83 72 77 84 94 94 91 93 92 94 94 92 90 91 96 100 106 104 104 86
17 15 17 26 34 42 20 19 55 58 57 48 29 31 64 75 71 66 69 78 83 88 86 84 81 83 91 90 91 93 85 77 75 78 82 90 105 105 102 95 98 92 97 85
5 8 11 20 14 15 26 51 59 59 59 64 71 78 78 75 76 77 77 81 84 91 90 83 87 90 93 94 97 92 96 99 114 118 123 123 116 112 115 103 95 90 89 84
9 12 35 47 43 44 58 59 60 67 74 73 78 81 82 85 77 72 77 86 96 88 85 83 85 88 95 101 94 95 119 139 143 145 144 132 114 109 93 87 91 92 84 80
17 15 38 59 52 62 62 71 77 76 79 73 72 74 76 84 89 94 87 81 81 83 85 83 75 79 80 78 91 104 116 143 155 116 123 130 115 95 92 79 92 90 81 83
30 24 64 27 51 65 71 74 81 60 80 88 81 79 80 78 78 78 74 70 68 68 76 83 90 91 82 76 81 102 104 102 22 28 79 105 101 93 82 82 91 87 89 94
7 42 31 54 77 77 80 77 71 82 83 77 71 75 76 74 67 68 70 72 80 88 82 80 67 74 74 68 70 70 64 6 27 55 60 70 64 69 78 69 75 87 99 95
16 47 53 61 73 64 75 80 72 71 71 71 72 66 69 70 70 69 72 75 72 72 70 70 64 69 62 63 57 54 53 22 36 48 54 59 65 69 73 80 89 86 86 87
34 36 48 51 75 78 71 83 71 71 68 66 67 66 66 64 66 66 69 68 66 72 72 59 55 61 58 42 44 42 40 35 44 54 57 65 65 77 84 87 96 87 80 82
38 44 52 64 70 76 80 78 71 66 66 67 62 60 59 63 63 64 62 51 61 45 40 38 40 46 44 51 36 27 40 48 53 64 70 66 68 74 103 97 94 85 79 70
53 55 51 60 74 66 75 76 69 66 71 70 67 64 60 57 53 51 41 41 36 32 27 34 27 33 43 47 42 37 33 40 53 68 65 69 63 72 91 91 87 85 81 81
47 48 65 69 64 73 80 78 68 70 67 63 65 62 55 53 48 41 34 29 27 24 20 27 34 34 32 21 20 16 20 34 47 56 62 60 69 74 78 82 86 84 80 80
41 45 54 68 62 70 80 74 76 66 64 65 61 55 51 52 50 45 39 28 23 24 32 35 35 30 18 10 5 6 26 38 41 56 63 64 70 70 72 80 83 83 80 72
49 48 53 66 63 61 73 75 75 63 65 60 61 56 45 48 49 41 42 35 35 38 24 28 18 16 16 13 21 28 23 41 51 57 63 69 68 72 68 69 71 76 73 64
57 45 52 64 71 59 66 81 76 67 62 59 58 57 54 50 51 44 36 40 41 44 41 35 18 14 11 29 41 26 41 57 50 54 65 68 79 70 71 69 66 62 63 55
59 47 48 61 74 55 66 82 79 68 65 64 60 60 54 49 51 45 46 52 40 29 13 7 3 13 39 42 44 38 50 61 58 59 66 77 79 76 76 73 71 69 63 57
54 48 52 64 63 60 57 83 76 66 63 67 64 62 59 58 59 57 45 52 38 29 36 47 22 43 45 49 47 47 57 65 63 67 73 71 76 73 68 67 64 58 55 51
47 45 49 57 64 60 53 81 83 76 63 71 68 67 64 58 57 63 60 54 50 33 31 34 33 41 47 56 56 62 68 69 68 73 69 67 69 64 63 63 63 60 58 54
44 41 42 49 61 56 49 68 76 79 63 66 66 63 64 70 59 56 51 44 47 39 47 46 54 65 74 67 72 72 70 69 72 66 61 57 57 65 64 67 64 62 54 52
44 40 37 47 53 52 50 55 62 77 81 71 69 68 61 58 59 58 50 50 43 35 33 34 50 58 69 73 68 68 74 70 67 70 65 64 63 64 69 66 62 62 57 53
47 45 41 40 43 53 56 48 55 75 80 77 69 68 65 61 56 55 48 47 41 30 31 34 32 38 50 57 59 60 57 60 57 60 63 56 63 70 69 67 65 60 53 54
33 42 49 44 39 54 62 40 55 71 69 76 68 64 63 60 59 55 51 47 41 33 29 36 38 37 44 49 50 54 58 58 56 55 55 60 67 66 67 66 65 59 58 57
Wind_Direction_500mb
271 297 298 289 287 278 232 237 250 269 272 277 279 287 266 227 235 258 269 269 274 274 277 266 266 268 271 264 265 266 268 252 261 263 266 280 270 263 262 270 267 269 254 257
275 277 273 279 289 274 271 252 239 265 274 278 272 267 268 277 284 301 323 282 267 262 264 271 264 262 262 261 267 268 260 259 260 270 267 262 264 262 260 258 268 265 264 249
287 291 300 292 272 276 283 305 287 294 333 348 346 312 329 348 333 310 287 284 301 300 310 307 299 293 300 300 284 274 263 257 258 259 256 257 264 266 267 262 257 264 263 248
284 291 274 277 312 330 297 302 354 328 331 321 273 299 306 309 291 270 299 312 311 306 302 294 287 290 287 287 281 273 264 258 257 254 257 260 269 265 263 259 261 253 261 255
263 268 278 288 13 353 18 306 325 343 345 333 321 317 297 284 299 323 321 317 313 307 302 295 288 285 281 279 278 271 260 257 257 256 253 254 259 261 258 258 257 255 258 258
258 273 285 37 115 259 249 261 1 347 331 314 325 309 304 325 320 314 311 306 305 300 294 290 287 285 283 279 274 263 260 260 258 251 248 252 252 257 249 263 260 260 248 256
244 243 273 27 351 334 280 325 329 329 318 320 312 298 303 306 306 302 303 301 298 293 289 290 293 289 286 287 285 287 276 266 256 251 251 251 261 255 248 258 259 252 239 248
220 247 270 25 353 6 314 326 326 317 316 316 314 311 305 303 300 302 302 299 298 296 295 295 291 289 289 288 288 284 284 279 272 265 258 255 252 241 252 248 245 241 235 236
290 310 315 358 351 340 334 320 320 317 313 310 306 301 299 303 297 301 301 301 299 295 295 288 289 293 292 286 291 289 285 281 273 261 247 242 233 239 238 234 230 225 230 219
323 328 332 337 336 336 329 319 314 312 310 312 311 308 304 303 302 299 296 297 298 297 293 294 294 290 292 296 293 288 284 290 288 280 235 214 219 222 225 220 213 220 213 192
301 314 334 318 326 321 316 313 310 307 308 306 301 299 298 298 295 297 298 299 298 293 291 290 290 289 294 297 290 294 295 304 334 104 162 186 205 215 216 210 211 204 184 175
281 311 302 297 310 314 312 313 317 316 311 308 306 304 299 295 298 297 297 296 291 291 297 300 299 296 297 291 290 293 316 324 140 132 150 171 182 194 199 206 198 184 180 184
298 300 299 299 303 310 310 326 313 316 314 310 308 302 299 297 295 293 292 295 293 296 303 304 299 295 295 309 311 332 0 110 149 153 163 172 182 188 184 177 169 165 171 161
316 323 313 315 311 319 316 324 319 315 319 318 313 309 308 306 308 303 299 299 294 297 298 295 295 294 311 314 330 343 14 66 141 152 153 149 146 138 147 139 136 136 143 150
325 320 307 307 316 322 326 326 325 325 325 325 322 316 314 313 309 306 308 314 322 311 301 286 288 305 307 316 340 360 3 74 128 127 127 131 121 119 123 143 131 133 135 143
321 324 322 323 320 325 330 335 330 328 333 332 329 325 322 322 318 313 313 319 324 309 300 301 309 300 299 323 337 11 49 89 107 111 115 116 115 121 128 131 132 135 142 146
329 327 326 323 330 336 337 334 333 339 338 336 333 332 332 330 331 329 325 325 324 345 310 294 294 295 299 310 336 8 79 115 126 122 122 120 124 124 128 135 138 140 142 148
330 326 326 329 335 334 344 343 345 345 346 343 340 340 341 339 335 334 335 329 327 304 288 290 295 300 306 286 287 162 129 127 137 131 125 123 123 125 127 140 143 142 143 144
342 336 332 333 336 338 343 350 353 355 353 353 352 349 345 344 345 346 347 342 335 344 324 313 294 283 288 201 173 149 142 137 134 131 128 131 127 126 127 130 139 138 134 129
342 342 335 337 340 344 345 358 357 358 359 359 358 360 357 358 358 353 352 356 347 335 327 328 319 295 187 181 177 169 143 142 136 133 130 125 131 122 122 125 126 131 138 143
344 344 340 339 339 342 352 352 2 1 5 3 4 4 2 5 13 6 358 355 348 347 344 349 307 202 154 151 146 155 148 146 147 144 134 126 125 127 133 140 141 145 147 151
347 344 344 342 343 352 354 356 4 6 9 5 11 9 10 11 13 14 12 357 354 5 32 35 74 147 149 152 155 145 145 139 137 133 128 134 142 144 147 152 153 151 150 147
347 344 344 346 343 352 354 357 4 10 11 8 12 11 13 16 15 9 2 11 15 27 56 60 100 136 162 142 142 134 133 127 128 135 140 147 152 156 156 155 149 147 146 145
350 351 348 352 355 353 0 1 1 8 14 11 17 18 14 11 19 18 12 5 21 29 61 87 113 113 121 126 129 130 134 139 140 141 141 149 153 154 156 151 148 146 145 146
3 357 354 355 347 347 357 360 0 6 14 16 17 21 21 24 17 15 13 15 23 42 64 88 109 126 128 134 138 140 138 142 144 145 153 155 155 153 150 148 150 150 147 149
3 4 357 353 345 354 359 4 7 6 9 15 17 18 21 22 23 27 29 25 26 38 73 92 106 113 127 135 135 140 149 153 157 160 160 156 151 149 151 152 152 150 150 151
358 2 10 3 2 4 354 3 12 9 7 15 17 19 21 23 24 29 33 39 38 42 65 99 115 123 125 130 136 141 148 151 155 162 159 148 147 149 152 152 150 149 151 148
Wind_Speed_850mb
38 44 47 48 50 42 35 36 36 49 49 45 37 38 34 62 58 86 55 49 42 30 33 31 40 45 53 53 52 54 54 37 54 50 49 53 57 73 67 65 75 83 79 68
40 39 50 56 53 53 53 46 54 49 50 42 50 58 52 55 60 40 31 37 46 41 44 40 47 55 53 56 44 43 56 59 54 55 55 57 60 65 78 78 68 80 78 76
39 38 40 28 36 55 41 40 43 30 38 41 42 40 43 47 45 40 32 41 46 46 51 47 50 42 46 49 56 63 66 67 63 64 64 59 64 72 76 87 85 76 84 87
27 29 36 39 12 16 22 22 31 32 28 16 29 37 41 39 43 43 42 35 43 48 50 52 57 60 71 79 72 71 70 68 68 69 68 76 82 73 79 86 88 80 82 88
11 20 37 42 16 16 13 25 26 17 24 31 49 54 45 45 37 55 61 63 61 60 62 70 74 83 82 80 86 88 86 86 88 87 80 70 74 82 82 86 99 101 84 84
15 9 13 14 8 23 19 22 32 39 31 35 47 29 28 66 74 73 75 69 70 73 78 84 83 72 77 84 94 94 91 93 92 94 94 92 90 91 96 100 106 104 104 86
17 15 17 26 34 42 20 19 55 58 57 48 29 31 64 75 71 66 69 78 83 88 86 84 81 83 91 90 91 93 85 77 75 78 82 90 105 105 102 95 98 92 97 85
5 8 11 20 14 15 26 51 59 59 59 64 71 78 78 75 76 77 77 81 84 91 90 83 87 90 93 94 97 92 96 99 114 118 123 123 116 112 115 103 95 90 89 84
9 12 35 47 43 44 58 59 60 67 74 73 78 81 82 85 77 72 77 86 96 88 85 83 85 88 95 101 94 95 119 139 143 145 144 132 114 109 93 87 91 92 84 80
17 15 38 59 52 62 62 71 77 76 79 73 72 74 76 84 89 94 87 81 81 83 85 83 75 79 80 78 91 104 116 143 155 116 123 130 115 95 92 79 92 90 81 83
30 24 64 27 51 65 71 74 81 60 80 88 81 79 80 78 78 78 74 70 68 68 76 83 90 91 82 76 81 102 104 102 22 28 79 105 101 93 82 82 91 87 89 94
7 42 31 54 77 77 80 77 71 82 83 77 71 75 76 74 67 68 70 72 80 88 82 80 67 74 74 68 70 70 64 6 27 55 60 70 64 69 78 69 75 87 99 95
16 47 53 61 73 64 75 80 72 71 71 71 72 66 69 70 70 69 72 75 72 72 70 70 64 69 62 63 57 54 53 22 36 48 54 59 65 69 73 80 89 86 86 87
34 36 48 51 75 78 71 83 71 71 68 66 67 66 66 64 66 66 69 68 66 72 72 59 55 61 58 42 44 42 40 35 44 54 57 65 65 77 84 87 96 87 80 82
38 44 52 64 70 76 80 78 71 66 66 67 62 60 59 63 63 64 62 51 61 45 40 38 40 46 44 51 36 27 40 48 53 64 70 66 68 74 103 97 94 85 79 70
53 55 51 60 74 66 75 76 69 66 71 70 67 64 60 57 53 51 41 41 36 32 27 34 27 33 43 47 42 37 33 40 53 68 65 69 63 72 91 91 87 85 81 81
47 48 65 69 64 73 80 78 68 70 67 63 65 62 55 53 48 41 34 29 27 24 20 27 34 34 32 21 20 16 20 34 47 56 62 60 69 74 78 82 86 84 80 80
41 45 54 68 62 70 80 74 76 66 64 65 61 55 51 52 50 45 39 28 23 24 32 35 35 30 18 10 5 6 26 38 41 56 63 64 70 70 72 80 83 83 80 72
49 48 53 66 63 61 73 75 75 63 65 60 61 56 45 48 49 41 42 35 35 38 24 28 18 16 16 13 21 28 23 41 51 57 63 69 68 72 68 69 71 76 73 64
57 45 52 64 71 59 66 81 76 67 62 59 58 57 54 50 51 44 36 40 41 44 41 35 18 14 11 29 41 26 41 57 50 54 65 68 79 70 71 69 66 62 63 55
59 47 48 61 74 55 66 82 79 68 65 64 60 60 54 49 51 45 46 52 40 29 13 7 3 13 39 42 44 38 50 61 58 59 66 77 79 76 76 73 71 69 63 57
54 48 52 64 63 60 57 83 76 66 63 67 64 62 59 58 59 57 45 52 38 29 36 47 22 43 45 49 47 47 57 65 63 67 73 71 76 73 68 67 64 58 55 51
47 45 49 57 64 60 53 81 83 76 63 71 68 67 64 58 57 63 60 54 50 33 31 34 33 41 47 56 56 62 68 69 68 73 69 67 69 64 63 63 63 60 58 54
44 41 42 49 61 56 49 68 76 79 63 66 66 63 64 70 59 56 51 44 47 39 47 46 54 65 74 67 72 72 70 69 72 66 61 57 57 65 64 67 64 62 54 52
44 40 37 47 53 52 50 55 62 77 81 71 69 68 61 58 59 58 50 50 43 35 33 34 50 58 69 73 68 68 74 70 67 70 65 64 63 64 69 66 62 62 57 53
47 45 41 40 43 53 56 48 55 75 80 77 69 68 65 61 56 55 48 47 41 30 31 34 32 38 50 57 59 60 57 60 57 60 63 56 63 70 69 67 65 60 53 54
33 42 49 44 39 54 62 40 55 71 69 76 68 64 63 60 59 55 51 47 41 33 29 36 38 37 44 49 50 54 58 58 56 55 55 60 67 66 67 66 65 59 58 57
Wind_Direction_850mb
271 297 298 289 287 278 232 237 250 269 272 277 279 287 266 227 235 258 269 269 274 274 277 266 266 268 271 264 265 266 268 252 261 263 266 280 270 263 262 270 267 269 254 257
275 277 273 279 289 274 271 252 239 265 274 278 272 267 268 277 284 301 323 282 267 262 264 271 264 262 262 261 267 268 260 259 260 270 267 262 264 262 260 258 268 265 264 249
287 291 300 292 272 276 283 305 287 294 333 348 346 312 329 348 333 310 287 284 301 300 310 307 299 293 300 300 284 274 263 257 258 259 256 257 264 266 267 262 257 264 263 248
284 291 274 277 312 330 297 302 354 328 331 321 273 299 306 309 291 270 299 312 311 306 302 294 287 290 287 287 281 273 264 258 257 254 257 260 269 265 263 259 261 253 261 255
263 268 278 288 13 353 18 306 325 343 345 333 321 317 297 284 299 323 321 317 313 307 302 295 288 285 281 279 278 271 260 257 257 256 253 254 259 261 258 258 257 255 258 258
258 273 285 37 115 259 249 261 1 347 331 314 325 309 304 325 320 314 311 306 305 300 294 290 287 285 283 279 274 263 260 260 258 251 248 252 252 257 249 263 260 260 248 256
244 243 273 27 351 334 280 325 329 329 318 320 312 298 303 306 306 302 303 301 298 293 289 290 293 289 286 287 285 287 276 266 256 251 251 251 261 255 248 258 259 252 239 248
220 247 270 25 353 6 314 326 326 317 316 316 314 311 305 303 300 302 302 299 298 296 295 295 291 289 289 288 288 284 284 279 272 265 258 255 252 241 252 248 245 241 235 236
290 310 315 358 351 340 334 320 320 317 313 310 306 301 299 303 297 301 301 301 299 295 295 288 289 293 292 286 291 289 285 281 273 261 247 242 233 239 238 234 230 225 230 219
323 328 332 337 336 336 329 319 314 312 310 312 311 308 304 303 302 299 296 297 298 297 293 294 294 290 292 296 293 288 284 290 288 280 235 214 219 222 225 220 213 220 213 192
301 314 334 318 326 321 316 313 310 307 308 306 301 299 298 298 295 297 298 299 298 293 291 290 290 289 294 297 290 294 295 304 334 104 162 186 205 215 216 210 211 204 184 175
281 311 302 297 310 314 312 313 317 316 311 308 306 304 299 295 298 297 297 296 291 291 297 300 299 296 297 291 290 293 316 324 140 132 150 171 182 194 199 206 198 184 180 184
298 300 299 299 303 310 310 326 313 316 314 310 308 302 299 297 295 293 292 295 293 296 303 304 299 295 295 309 311 332 0 110 149 153 163 172 182 188 184 177 169 165 171 161
316 323 313 315 311 319 316 324 319 315 319 318 313 309 308 306 308 303 299 299 294 297 298 295 295 294 311 314 330 343 14 66 141 152 153 149 146 138 147 139 136 136 143 150
325 320 307 307 316 322 326 326 325 325 325 325 322 316 314 313 309 306 308 314 322 311 301 286 288 305 307 316 340 360 3 74 128 127 127 131 121 119 123 143 131 133 135 143
321 324 322 323 320 325 330 335 330 328 333 332 329 325 322 322 318 313 313 319 324 309 300 301 309 300 299 323 337 11 49 89 107 111 115 116 115 121 128 131 132 135 142 146
329 327 326 323 330 336 337 334 333 339 338 336 333 332 332 330 331 329 325 325 324 345 310 294 294 295 299 310 336 8 79 115 126 122 122 120 124 124 128 135 138 140 142 148
330 326 326 329 335 334 344 343 345 345 346 343 340 340 341 339 335 334 335 329 327 304 288 290 295 300 306 286 287 162 129 127 137 131 125 123 123 125 127 140 143 142 143 144
342 336 332 333 336 338 343 350 353 355 353 353 352 349 345 344 345 346 347 342 335 344 324 313 294 283 288 201 173 149 142 137 134 131 128 131 127 126 127 130 139 138 134 129
342 342 335 337 340 344 345 358 357 358 359 359 358 360 357 358 358 353 352 356 347 335 327 328 319 295 187 181 177 169 143 142 136 133 130 125 131 122 122 125 126 131 138 143
344 344 340 339 339 342 352 352 2 1 5 3 4 4 2 5 13 6 358 355 348 347 344 349 307 202 154 151 146 155 148 146 147 144 134 126 125 127 133 140 141 145 147 151
347 344 344 342 343 352 354 356 4 6 9 5 11 9 10 11 13 14 12 357 354 5 32 35 74 147 149 152 155 145 145 139 137 133 128 134 142 144 147 152 153 151 150 147
347 344 344 346 343 352 354 357 4 10 11 8 12 11 13 16 15 9 2 11 15 27 56 60 100 136 162 142 142 134 133 127 128 135 140 147 152 156 156 155 149 147 146 145
350 351 348 352 355 353 0 1 1 8 14 11 17 18 14 11 19 18 12 5 21 29 61 87 113 113 121 126 129 130 134 139 140 141 141 149 153 154 156 151 148 146 145 146
3 357 354 355 347 347 357 360 0 6 14 16 17 21 21 24 17 15 13 15 23 42 64 88 109 126 128 134 138 140 138 142 144 145 153 155 155 153 150 148 150 150 147 149
3 4 357 353 345 354 359 4 7 6 9 15 17 18 21 22 23 27 29 25 26 38 73 92 106 113 127 135 135 140 149 153 157 160 160 156 151 149 151 152 152 150 150 151
358 2 10 3 2 4 354 3 12 9 7 15 17 19 21 23 24 29 33 39 38 42 65 99 115 123 125 130 136 141 148 151 155 162 159 148 147 149 152 152 150 149 151 148